QPF
0.00 0.00 0.00 0.00 0.00 0.00 0.00 0.00 0.00 0.00 0.00 0.00 0.00 0.00 0.00 0.00 0.00 0.00 0.00 0.00 0.00 0.01 0.01 0.01 0.01 0.02 0.02 0.02 0.02 0.02 0.04 0.05 0.06 0.07 0.09 0.10 0.10 0.07 0.08 0.09 0.12 0.13 0.13 0.12
0.00 0.00 0.00 0.00 0.00 0.00 0.00 0.00 0.00 0.00 0.00 0.00 0.00 0.00 0.00 0.00 0.00 0.00 0.00 0.00 0.00 0.00 0.01 0.01 0.02 0.01 0.01 0.02 0.02 0.03 0.10 0.10 0.08 0.10 0.10 0.10 0.09 0.09 0.09 0.09 0.10 0.11 0.11 0.11
0.00 0.00 0.00 0.00 0.00 0.00 0.00 0.00 0.00 0.00 0.00 0.00 0.00 0.00 0.00 0.00 0.00 0.00 0.00 0.00 0.01 0.01 0.00 0.01 0.01 0.01 0.02 0.02 0.02 0.03 0.06 0.09 0.10 0.11 0.09 0.08 0.07 0.08 0.08 0.08 0.09 0.10 0.11 0.11
0.00 0.00 0.00 0.00 0.00 0.00 0.00 0.00 0.00 0.00 0.00 0.00 0.00 0.00 0.00 0.00 0.00 0.01 0.01 0.00 0.01 0.01 0.01 0.01 0.01 0.01 0.01 0.01 0.01 0.01 0.02 0.05 0.10 0.12 0.09 0.07 0.06 0.07 0.07 0.08 0.08 0.09 0.10 0.08
0.00 0.00 0.00 0.00 0.00 0.00 0.00 0.00 0.00 0.00 0.00 0.00 0.00 0.00 0.00 0.00 0.01 0.01 0.02 0.01 0.01 0.01 0.01 0.01 0.01 0.01 0.01 0.01 0.01 0.01 0.04 0.08 0.09 0.08 0.09 0.11 0.10 0.09 0.09 0.09 0.08 0.09 0.09 0.09
0.00 0.00 0.00 0.00 0.00 0.00 0.00 0.00 0.00 0.00 0.00 0.00 0.00 0.01 0.01 0.00 0.00 0.01 0.01 0.01 0.01 0.01 0.02 0.01 0.01 0.02 0.01 0.02 0.02 0.02 0.04 0.08 0.09 0.08 0.07 0.08 0.10 0.11 0.11 0.11 0.09 0.09 0.11 0.12
0.00 0.00 0.00 0.00 0.00 0.00 0.01 0.00 0.00 0.00 0.00 0.00 0.00 0.00 0.00 0.00 0.00 0.00 0.01 0.01 0.02 0.02 0.02 0.02 0.03 0.03 0.03 0.03 0.05 0.04 0.04 0.04 0.05 0.06 0.06 0.08 0.09 0.10 0.11 0.13 0.14 0.14 0.13 0.12
0.00 0.00 0.00 0.00 0.00 0.00 0.00 0.00 0.00 0.00 0.00 0.00 0.00 0.00 0.00 0.00 0.00 0.00 0.01 0.02 0.02 0.03 0.03 0.03 0.04 0.05 0.05 0.04 0.04 0.05 0.05 0.05 0.05 0.07 0.08 0.08 0.09 0.10 0.12 0.14 0.17 0.18 0.15 0.11
0.00 0.00 0.00 0.00 0.00 0.00 0.00 0.01 0.01 0.01 0.01 0.00 0.00 0.00 0.00 0.00 0.00 0.01 0.01 0.01 0.01 0.02 0.03 0.04 0.05 0.04 0.04 0.04 0.04 0.05 0.05 0.06 0.08 0.11 0.11 0.11 0.11 0.13 0.16 0.14 0.12 0.13 0.13 0.12
0.01 0.01 0.00 0.00 0.00 0.00 0.01 0.01 0.01 0.01 0.01 0.00 0.01 0.01 0.01 0.01 0.01 0.01 0.02 0.02 0.02 0.03 0.04 0.06 0.07 0.05 0.04 0.04 0.04 0.05 0.06 0.07 0.07 0.08 0.10 0.10 0.10 0.11 0.12 0.11 0.12 0.13 0.14 0.13
0.02 0.02 0.02 0.01 0.01 0.01 0.01 0.00 0.00 0.01 0.01 0.01 0.00 0.00 0.01 0.01 0.01 0.01 0.03 0.06 0.05 0.05 0.05 0.06 0.06 0.06 0.06 0.06 0.06 0.06 0.08 0.08 0.09 0.10 0.11 0.11 0.11 0.12 0.12 0.12 0.13 0.13 0.13 0.13
0.03 0.02 0.02 0.02 0.01 0.01 0.01 0.00 0.01 0.01 0.01 0.01 0.01 0.00 0.00 0.01 0.01 0.01 0.02 0.04 0.05 0.05 0.05 0.04 0.04 0.05 0.07 0.08 0.09 0.10 0.11 0.10 0.10 0.11 0.11 0.10 0.10 0.11 0.13 0.13 0.15 0.15 0.15 0.14
0.01 0.01 0.01 0.01 0.01 0.00 0.00 0.00 0.01 0.01 0.01 0.01 0.01 0.01 0.01 0.01 0.01 0.02 0.02 0.02 0.02 0.03 0.03 0.03 0.03 0.04 0.06 0.11 0.15 0.14 0.13 0.12 0.10 0.10 0.11 0.12 0.12 0.11 0.12 0.13 0.13 0.13 0.12 0.11
0.00 0.01 0.02 0.01 0.01 0.01 0.01 0.02 0.02 0.01 0.01 0.02 0.01 0.01 0.01 0.01 0.01 0.01 0.03 0.03 0.02 0.02 0.02 0.02 0.03 0.04 0.05 0.07 0.11 0.13 0.13 0.14 0.14 0.12 0.11 0.10 0.10 0.10 0.10 0.09 0.08 0.08 0.08 0.07
0.01 0.01 0.01 0.01 0.01 0.01 0.01 0.01 0.02 0.02 0.02 0.02 0.01 0.01 0.01 0.01 0.01 0.01 0.03 0.04 0.03 0.04 0.04 0.04 0.05 0.05 0.05 0.06 0.08 0.08 0.07 0.08 0.09 0.10 0.10 0.09 0.08 0.07 0.06 0.05 0.05 0.05 0.05 0.05
0.01 0.01 0.00 0.01 0.01 0.02 0.02 0.02 0.02 0.02 0.02 0.03 0.02 0.01 0.02 0.01 0.01 0.02 0.02 0.03 0.03 0.03 0.03 0.04 0.07 0.07 0.06 0.06 0.07 0.07 0.06 0.07 0.07 0.07 0.07 0.06 0.05 0.05 0.05 0.04 0.04 0.04 0.03 0.02
0.01 0.01 0.01 0.01 0.01 0.02 0.02 0.01 0.01 0.02 0.02 0.02 0.02 0.02 0.01 0.01 0.02 0.02 0.03 0.03 0.03 0.02 0.02 0.03 0.05 0.05 0.05 0.05 0.04 0.04 0.03 0.03 0.03 0.03 0.03 0.03 0.04 0.04 0.04 0.04 0.03 0.02 0.01 0.01
0.01 0.02 0.01 0.01 0.01 0.02 0.02 0.02 0.02 0.02 0.02 0.02 0.01 0.01 0.01 0.01 0.02 0.02 0.02 0.02 0.02 0.02 0.02 0.03 0.03 0.02 0.03 0.02 0.02 0.01 0.01 0.01 0.02 0.02 0.02 0.02 0.02 0.02 0.02 0.02 0.01 0.01 0.00 0.00
0.01 0.02 0.01 0.01 0.02 0.02 0.02 0.02 0.03 0.04 0.03 0.03 0.02 0.02 0.02 0.02 0.02 0.02 0.03 0.03 0.02 0.02 0.02 0.02 0.02 0.01 0.01 0.01 0.02 0.02 0.01 0.01 0.01 0.01 0.01 0.01 0.01 0.01 0.01 0.00 0.00 0.00 0.00 0.00
0.03 0.03 0.03 0.03 0.03 0.02 0.02 0.03 0.03 0.05 0.05 0.03 0.03 0.02 0.02 0.02 0.02 0.02 0.03 0.03 0.02 0.01 0.01 0.02 0.02 0.01 0.01 0.01 0.02 0.02 0.01 0.01 0.01 0.00 0.00 0.00 0.00 0.00 0.00 0.00 0.00 0.00 0.00 0.00
0.05 0.04 0.05 0.06 0.05 0.04 0.03 0.03 0.03 0.04 0.04 0.03 0.03 0.03 0.03 0.03 0.03 0.02 0.02 0.03 0.03 0.02 0.02 0.02 0.02 0.02 0.01 0.02 0.02 0.01 0.01 0.01 0.01 0.00 0.00 0.00 0.00 0.00 0.00 0.00 0.00 0.00 0.00 0.00
0.07 0.07 0.07 0.08 0.07 0.05 0.04 0.03 0.03 0.03 0.03 0.04 0.03 0.03 0.03 0.03 0.04 0.04 0.03 0.02 0.03 0.03 0.02 0.01 0.01 0.02 0.02 0.01 0.01 0.01 0.00 0.00 0.00 0.00 0.00 0.00 0.00 0.00 0.00 0.00 0.00 0.00 0.00 0.00
0.07 0.08 0.08 0.08 0.07 0.05 0.04 0.04 0.04 0.03 0.02 0.03 0.03 0.03 0.02 0.02 0.02 0.03 0.03 0.03 0.02 0.02 0.01 0.01 0.01 0.01 0.01 0.00 0.00 0.00 0.00 0.00 0.00 0.00 0.00 0.00 0.00 0.00 0.00 0.00 0.00 0.00 0.00 0.00
0.06 0.07 0.07 0.05 0.05 0.05 0.04 0.04 0.03 0.02 0.02 0.02 0.02 0.02 0.02 0.01 0.01 0.01 0.02 0.02 0.01 0.01 0.00 0.00 0.00 0.00 0.00 0.00 0.00 0.00 0.00 0.00 0.00 0.00 0.00 0.00 0.00 0.00 0.00 0.00 0.00 0.00 0.00 0.00
0.05 0.05 0.04 0.04 0.04 0.04 0.03 0.02 0.02 0.02 0.02 0.01 0.01 0.01 0.01 0.01 0.01 0.01 0.01 0.01 0.00 0.00 0.00 0.00 0.00 0.00 0.00 0.00 0.00 0.00 0.00 0.00 0.00 0.00 0.00 0.00 0.00 0.00 0.00 0.00 0.00 0.00 0.00 0.00
0.04 0.05 0.04 0.04 0.04 0.03 0.02 0.02 0.03 0.02 0.01 0.01 0.01 0.01 0.01 0.01 0.01 0.01 0.00 0.00 0.00 0.00 0.00 0.00 0.00 0.00 0.00 0.00 0.00 0.00 0.00 0.00 0.00 0.00 0.00 0.00 0.00 0.00 0.00 0.00 0.00 0.00 0.00 0.00
0.05 0.05 0.05 0.05 0.05 0.03 0.02 0.02 0.02 0.02 0.02 0.01 0.01 0.01 0.01 0.01 0.02 0.01 0.01 0.00 0.00 0.00 0.00 0.00 0.00 0.00 0.00 0.00 0.00 0.00 0.00 0.00 0.00 0.00 0.00 0.00 0.00 0.00 0.00 0.00 0.00 0.00 0.00 0.00
MSLP
1007.53 1007.61 1007.62 1007.59 1007.51 1007.39 1007.25 1007.12 1006.99 1006.90 1006.85 1006.85 1006.92 1007.06 1007.27 1007.55 1007.89 1008.27 1008.69 1009.11 1009.52 1009.90 1010.23 1010.49 1010.69 1010.82 1010.90 1010.94 1010.95 1010.98 1011.03 1011.12 1011.28 1011.49 1011.78 1012.12 1012.51 1012.92 1013.35 1013.77 1014.17 1014.56 1014.94 1015.31
1007.50 1007.51 1007.43 1007.29 1007.09 1006.87 1006.67 1006.51 1006.43 1006.43 1006.54 1006.74 1007.02 1007.37 1007.77 1008.20 1008.63 1009.05 1009.44 1009.80 1010.12 1010.39 1010.61 1010.77 1010.89 1010.97 1011.02 1011.04 1011.05 1011.08 1011.13 1011.24 1011.40 1011.62 1011.92 1012.28 1012.69 1013.13 1013.59 1014.05 1014.49 1014.92 1015.33 1015.73
1007.52 1007.50 1007.37 1007.16 1006.89 1006.61 1006.37 1006.21 1006.18 1006.28 1006.52 1006.89 1007.36 1007.89 1008.45 1009.00 1009.50 1009.94 1010.31 1010.59 1010.80 1010.95 1011.05 1011.10 1011.12 1011.13 1011.12 1011.11 1011.12 1011.15 1011.21 1011.33 1011.51 1011.76 1012.08 1012.47 1012.91 1013.40 1013.90 1014.41 1014.91 1015.38 1015.84 1016.29
1007.55 1007.55 1007.42 1007.20 1006.91 1006.61 1006.36 1006.22 1006.23 1006.40 1006.75 1007.25 1007.86 1008.53 1009.21 1009.85 1010.40 1010.85 1011.17 1011.38 1011.48 1011.50 1011.47 1011.40 1011.31 1011.23 1011.16 1011.11 1011.09 1011.12 1011.19 1011.33 1011.54 1011.83 1012.19 1012.63 1013.13 1013.68 1014.25 1014.82 1015.39 1015.94 1016.46 1016.97
1007.58 1007.63 1007.55 1007.35 1007.08 1006.80 1006.57 1006.45 1006.49 1006.72 1007.14 1007.72 1008.42 1009.19 1009.94 1010.63 1011.21 1011.64 1011.92 1012.05 1012.05 1011.95 1011.79 1011.59 1011.40 1011.22 1011.07 1010.97 1010.93 1010.95 1011.04 1011.21 1011.46 1011.81 1012.24 1012.75 1013.32 1013.95 1014.61 1015.27 1015.93 1016.56 1017.16 1017.74
1007.60 1007.71 1007.69 1007.55 1007.33 1007.09 1006.90 1006.81 1006.88 1007.14 1007.60 1008.22 1008.96 1009.76 1010.55 1011.26 1011.84 1012.26 1012.49 1012.55 1012.46 1012.25 1011.97 1011.66 1011.36 1011.08 1010.86 1010.71 1010.64 1010.66 1010.77 1010.99 1011.30 1011.71 1012.23 1012.83 1013.51 1014.23 1014.99 1015.76 1016.52 1017.24 1017.93 1018.59
1007.59 1007.77 1007.82 1007.76 1007.61 1007.42 1007.27 1007.22 1007.31 1007.59 1008.05 1008.67 1009.42 1010.22 1011.01 1011.71 1012.28 1012.67 1012.86 1012.86 1012.69 1012.40 1012.03 1011.62 1011.21 1010.85 1010.57 1010.38 1010.29 1010.32 1010.46 1010.73 1011.11 1011.62 1012.23 1012.94 1013.73 1014.57 1015.45 1016.32 1017.18 1018.00 1018.78 1019.51
1007.57 1007.80 1007.92 1007.93 1007.85 1007.74 1007.64 1007.62 1007.74 1008.01 1008.46 1009.06 1009.78 1010.56 1011.32 1012.00 1012.54 1012.90 1013.06 1013.02 1012.80 1012.44 1012.00 1011.52 1011.05 1010.63 1010.29 1010.07 1009.98 1010.03 1010.21 1010.55 1011.02 1011.62 1012.34 1013.17 1014.07 1015.03 1016.01 1016.99 1017.94 1018.85 1019.70 1020.49
1007.56 1007.83 1008.01 1008.09 1008.09 1008.04 1008.00 1008.02 1008.15 1008.42 1008.85 1009.42 1010.10 1010.83 1011.54 1012.19 1012.69 1013.03 1013.17 1013.10 1012.86 1012.47 1011.99 1011.47 1010.96 1010.51 1010.15 1009.93 1009.85 1009.93 1010.17 1010.58 1011.13 1011.84 1012.66 1013.59 1014.60 1015.65 1016.73 1017.79 1018.81 1019.78 1020.68 1021.51
1007.59 1007.88 1008.10 1008.25 1008.32 1008.35 1008.37 1008.44 1008.60 1008.86 1009.27 1009.79 1010.42 1011.09 1011.76 1012.36 1012.84 1013.16 1013.29 1013.22 1012.97 1012.59 1012.11 1011.59 1011.08 1010.63 1010.28 1010.07 1010.02 1010.14 1010.45 1010.92 1011.56 1012.35 1013.26 1014.27 1015.35 1016.47 1017.60 1018.71 1019.77 1020.76 1021.67 1022.50
1007.66 1007.97 1008.24 1008.45 1008.61 1008.71 1008.81 1008.93 1009.11 1009.39 1009.77 1010.25 1010.83 1011.44 1012.06 1012.61 1013.06 1013.37 1013.50 1013.45 1013.24 1012.88 1012.44 1011.95 1011.47 1011.06 1010.74 1010.57 1010.57 1010.75 1011.10 1011.64 1012.34 1013.18 1014.15 1015.20 1016.32 1017.46 1018.60 1019.71 1020.76 1021.73 1022.62 1023.41
1007.80 1008.13 1008.46 1008.74 1008.98 1009.17 1009.34 1009.53 1009.74 1010.03 1010.39 1010.84 1011.36 1011.92 1012.48 1012.99 1013.42 1013.72 1013.86 1013.85 1013.68 1013.39 1013.01 1012.59 1012.18 1011.82 1011.57 1011.45 1011.50 1011.72 1012.12 1012.70 1013.43 1014.29 1015.27 1016.32 1017.42 1018.53 1019.63 1020.69 1021.69 1022.60 1023.42 1024.15
1007.97 1008.35 1008.74 1009.11 1009.44 1009.73 1009.99 1010.23 1010.49 1010.79 1011.14 1011.55 1012.02 1012.52 1013.03 1013.50 1013.90 1014.19 1014.36 1014.39 1014.29 1014.08 1013.78 1013.45 1013.12 1012.85 1012.67 1012.61 1012.71 1012.97 1013.39 1013.98 1014.70 1015.55 1016.49 1017.50 1018.53 1019.58 1020.60 1021.57 1022.47 1023.30 1024.03 1024.67
1008.15 1008.60 1009.08 1009.55 1009.98 1010.36 1010.70 1011.02 1011.32 1011.63 1011.97 1012.34 1012.76 1013.21 1013.66 1014.08 1014.46 1014.75 1014.95 1015.03 1015.00 1014.87 1014.67 1014.44 1014.21 1014.02 1013.91 1013.91 1014.05 1014.33 1014.75 1015.32 1016.01 1016.80 1017.67 1018.59 1019.54 1020.48 1021.38 1022.25 1023.04 1023.76 1024.39 1024.94
1008.29 1008.84 1009.41 1009.99 1010.53 1011.01 1011.44 1011.81 1012.15 1012.48 1012.81 1013.15 1013.52 1013.90 1014.30 1014.68 1015.03 1015.33 1015.54 1015.67 1015.71 1015.67 1015.57 1015.43 1015.29 1015.19 1015.14 1015.19 1015.35 1015.63 1016.04 1016.56 1017.19 1017.90 1018.68 1019.49 1020.32 1021.14 1021.94 1022.68 1023.37 1023.99 1024.53 1024.99
1008.36 1009.01 1009.70 1010.38 1011.02 1011.60 1012.11 1012.54 1012.92 1013.26 1013.57 1013.88 1014.21 1014.54 1014.88 1015.22 1015.55 1015.83 1016.07 1016.24 1016.34 1016.38 1016.36 1016.31 1016.26 1016.22 1016.23 1016.31 1016.48 1016.74 1017.11 1017.57 1018.13 1018.75 1019.42 1020.13 1020.85 1021.56 1022.24 1022.89 1023.48 1024.02 1024.49 1024.89
1008.35 1009.11 1009.90 1010.68 1011.41 1012.08 1012.65 1013.14 1013.55 1013.90 1014.21 1014.49 1014.77 1015.06 1015.36 1015.66 1015.96 1016.24 1016.49 1016.69 1016.84 1016.94 1016.99 1017.02 1017.03 1017.05 1017.09 1017.19 1017.35 1017.60 1017.92 1018.32 1018.79 1019.33 1019.90 1020.52 1021.14 1021.75 1022.35 1022.92 1023.45 1023.93 1024.35 1024.72
1008.25 1009.11 1009.99 1010.86 1011.67 1012.41 1013.04 1013.58 1014.02 1014.37 1014.68 1014.94 1015.20 1015.45 1015.71 1015.98 1016.26 1016.53 1016.79 1017.02 1017.20 1017.35 1017.46 1017.54 1017.60 1017.65 1017.73 1017.83 1017.99 1018.20 1018.48 1018.82 1019.22 1019.68 1020.19 1020.72 1021.27 1021.82 1022.36 1022.88 1023.37 1023.82 1024.23 1024.58
1008.11 1009.04 1010.00 1010.93 1011.81 1012.60 1013.28 1013.85 1014.31 1014.69 1014.99 1015.25 1015.49 1015.73 1015.97 1016.22 1016.49 1016.76 1017.02 1017.26 1017.48 1017.66 1017.81 1017.92 1018.02 1018.10 1018.19 1018.30 1018.45 1018.64 1018.88 1019.17 1019.53 1019.93 1020.38 1020.86 1021.36 1021.87 1022.38 1022.87 1023.34 1023.78 1024.18 1024.54
1007.99 1008.97 1009.97 1010.95 1011.87 1012.69 1013.41 1014.00 1014.49 1014.89 1015.21 1015.48 1015.72 1015.95 1016.19 1016.44 1016.70 1016.97 1017.24 1017.50 1017.73 1017.94 1018.11 1018.26 1018.38 1018.49 1018.59 1018.71 1018.85 1019.03 1019.25 1019.51 1019.83 1020.19 1020.60 1021.04 1021.51 1022.00 1022.48 1022.96 1023.42 1023.85 1024.25 1024.61
1007.97 1008.98 1010.01 1011.00 1011.93 1012.77 1013.50 1014.12 1014.63 1015.05 1015.39 1015.68 1015.93 1016.18 1016.42 1016.68 1016.95 1017.23 1017.50 1017.77 1018.03 1018.26 1018.46 1018.63 1018.77 1018.90 1019.03 1019.15 1019.30 1019.47 1019.68 1019.93 1020.22 1020.56 1020.93 1021.35 1021.79 1022.24 1022.70 1023.15 1023.59 1024.01 1024.39 1024.74
1008.13 1009.15 1010.17 1011.15 1012.08 1012.91 1013.64 1014.27 1014.79 1015.22 1015.59 1015.90 1016.18 1016.44 1016.71 1016.98 1017.26 1017.55 1017.84 1018.13 1018.40 1018.64 1018.87 1019.06 1019.23 1019.39 1019.53 1019.68 1019.83 1020.01 1020.21 1020.45 1020.73 1021.04 1021.39 1021.76 1022.16 1022.58 1023.00 1023.41 1023.82 1024.20 1024.55 1024.87
1008.52 1009.52 1010.51 1011.46 1012.35 1013.16 1013.87 1014.49 1015.01 1015.45 1015.83 1016.17 1016.47 1016.76 1017.04 1017.33 1017.63 1017.93 1018.24 1018.54 1018.82 1019.09 1019.33 1019.55 1019.75 1019.93 1020.09 1020.26 1020.43 1020.61 1020.81 1021.04 1021.30 1021.58 1021.89 1022.22 1022.57 1022.93 1023.30 1023.65 1024.00 1024.32 1024.62 1024.89
1009.16 1010.11 1011.05 1011.95 1012.78 1013.54 1014.21 1014.80 1015.31 1015.75 1016.13 1016.47 1016.79 1017.10 1017.40 1017.71 1018.02 1018.33 1018.65 1018.95 1019.25 1019.53 1019.79 1020.03 1020.25 1020.45 1020.64 1020.82 1021.01 1021.19 1021.39 1021.60 1021.83 1022.08 1022.34 1022.62 1022.91 1023.20 1023.49 1023.77 1024.05 1024.30 1024.54 1024.75
1010.02 1010.91 1011.77 1012.59 1013.35 1014.03 1014.64 1015.18 1015.65 1016.07 1016.45 1016.79 1017.11 1017.43 1017.74 1018.05 1018.37 1018.69 1019.00 1019.31 1019.61 1019.90 1020.17 1020.42 1020.65 1020.87 1021.07 1021.27 1021.45 1021.64 1021.83 1022.02 1022.21 1022.42 1022.63 1022.84 1023.06 1023.28 1023.49 1023.70 1023.90 1024.09 1024.26 1024.41
1011.04 1011.84 1012.60 1013.32 1013.98 1014.57 1015.11 1015.58 1016.01 1016.39 1016.74 1017.07 1017.39 1017.70 1018.01 1018.32 1018.63 1018.95 1019.26 1019.56 1019.85 1020.14 1020.40 1020.65 1020.89 1021.10 1021.31 1021.50 1021.68 1021.85 1022.02 1022.18 1022.34 1022.49 1022.65 1022.81 1022.96 1023.11 1023.26 1023.40 1023.54 1023.68 1023.80 1023.91
1012.09 1012.79 1013.44 1014.05 1014.60 1015.10 1015.55 1015.95 1016.32 1016.66 1016.98 1017.29 1017.60 1017.89 1018.20 1018.49 1018.79 1019.09 1019.39 1019.67 1019.94 1020.21 1020.46 1020.69 1020.91 1021.11 1021.30 1021.47 1021.63 1021.78 1021.92 1022.05 1022.17 1022.29 1022.40 1022.50 1022.61 1022.71 1022.81 1022.91 1023.01 1023.11 1023.21 1023.30
Thickness
5773 5779 5780 5777 5777 5776 5773 5779 5776 5780 5783 5786 5784 5782 5779 5777 5775 5772 5768 5764 5761 5758 5755 5752 5750 5748 5747 5745 5742 5739 5735 5731 5728 5726 5724 5721 5719 5716 5714 5712 5710 5707 5706 5704
5758 5769 5771 5769 5775 5775 5774 5778 5779 5781 5779 5782 5781 5778 5772 5770 5769 5765 5762 5759 5757 5755 5752 5748 5747 5745 5743 5741 5738 5735 5732 5728 5726 5723 5720 5716 5714 5711 5708 5706 5703 5701 5699 5697
5748 5760 5756 5751 5767 5770 5771 5777 5777 5772 5775 5774 5768 5764 5762 5762 5762 5759 5757 5755 5753 5750 5748 5746 5744 5742 5739 5737 5733 5730 5727 5725 5722 5719 5715 5711 5708 5705 5701 5698 5696 5693 5691 5689
5744 5740 5724 5759 5771 5773 5770 5771 5774 5771 5768 5766 5758 5754 5753 5755 5754 5752 5750 5748 5746 5745 5743 5742 5740 5738 5735 5732 5728 5725 5722 5719 5716 5712 5708 5704 5700 5696 5693 5691 5687 5684 5681 5679
5735 5728 5736 5746 5757 5762 5758 5757 5766 5762 5757 5754 5750 5746 5741 5742 5744 5743 5743 5742 5740 5740 5739 5737 5734 5732 5729 5725 5722 5718 5715 5713 5710 5706 5701 5697 5692 5688 5685 5682 5678 5674 5670 5667
5724 5718 5720 5743 5753 5758 5753 5741 5756 5755 5750 5748 5744 5742 5733 5732 5733 5733 5733 5733 5732 5732 5731 5728 5726 5725 5721 5718 5715 5711 5709 5707 5704 5700 5696 5691 5686 5681 5676 5673 5668 5664 5659 5656
5715 5714 5729 5738 5744 5744 5726 5733 5745 5747 5744 5741 5738 5735 5727 5725 5723 5722 5722 5722 5723 5722 5721 5718 5717 5715 5712 5710 5707 5705 5703 5699 5695 5691 5687 5683 5678 5673 5668 5663 5658 5652 5648 5643
5709 5705 5714 5726 5731 5728 5727 5733 5735 5734 5733 5729 5723 5720 5717 5715 5713 5712 5712 5712 5712 5711 5709 5708 5707 5705 5702 5699 5698 5696 5693 5689 5685 5681 5678 5673 5668 5663 5658 5653 5647 5640 5636 5630
5710 5707 5708 5715 5717 5717 5722 5721 5721 5722 5722 5717 5712 5709 5707 5705 5704 5703 5703 5702 5702 5701 5698 5697 5696 5695 5692 5689 5688 5685 5681 5677 5673 5668 5664 5660 5656 5651 5646 5642 5638 5632 5626 5620
5694 5697 5700 5702 5704 5706 5709 5709 5710 5710 5709 5707 5703 5700 5698 5696 5694 5693 5693 5692 5692 5690 5688 5685 5684 5683 5681 5679 5677 5674 5669 5665 5660 5655 5649 5645 5642 5639 5636 5631 5627 5621 5616 5610
5683 5687 5689 5690 5693 5695 5697 5698 5698 5698 5697 5696 5693 5690 5688 5685 5683 5682 5681 5681 5680 5678 5676 5674 5673 5671 5669 5668 5666 5662 5657 5652 5647 5642 5637 5630 5626 5621 5619 5614 5614 5611 5605 5600
5677 5681 5683 5682 5684 5686 5685 5685 5686 5685 5684 5684 5683 5680 5678 5674 5672 5670 5669 5669 5668 5666 5664 5662 5661 5659 5657 5656 5654 5651 5646 5641 5636 5630 5624 5618 5612 5603 5597 5596 5594 5592 5589 5586
5671 5675 5676 5673 5674 5675 5674 5674 5674 5673 5672 5670 5670 5669 5667 5663 5661 5659 5658 5657 5655 5653 5651 5650 5648 5646 5644 5644 5642 5639 5635 5630 5624 5619 5613 5608 5603 5597 5590 5580 5577 5574 5571 5568
5660 5661 5660 5661 5661 5662 5662 5662 5662 5661 5660 5659 5658 5657 5655 5652 5649 5648 5646 5644 5643 5642 5640 5639 5637 5634 5632 5631 5629 5626 5622 5617 5613 5608 5603 5599 5594 5589 5585 5580 5572 5562 5555 5552
5650 5653 5653 5652 5651 5650 5651 5651 5650 5649 5647 5646 5645 5644 5643 5640 5637 5635 5634 5634 5632 5631 5629 5628 5625 5622 5620 5619 5617 5614 5611 5607 5602 5598 5594 5590 5585 5580 5576 5571 5565 5557 5549 5541
5641 5642 5642 5641 5640 5640 5641 5641 5640 5638 5636 5635 5633 5632 5631 5629 5627 5625 5624 5624 5623 5621 5618 5617 5614 5612 5610 5609 5607 5603 5599 5595 5592 5589 5585 5581 5576 5572 5567 5562 5557 5551 5546 5539
5631 5631 5633 5632 5632 5631 5632 5632 5631 5629 5627 5625 5623 5621 5620 5619 5617 5615 5614 5613 5613 5611 5609 5607 5604 5602 5601 5599 5598 5595 5590 5585 5582 5581 5578 5574 5569 5564 5560 5555 5550 5545 5539 5531
5629 5629 5629 5628 5626 5624 5623 5622 5620 5618 5617 5615 5614 5613 5612 5610 5608 5606 5604 5603 5601 5600 5598 5597 5595 5593 5592 5590 5589 5587 5583 5580 5577 5573 5568 5565 5561 5557 5552 5548 5543 5537 5530 5522
5621 5621 5621 5620 5618 5616 5615 5612 5610 5609 5608 5607 5606 5604 5603 5601 5600 5598 5596 5595 5593 5591 5588 5587 5585 5586 5584 5581 5580 5578 5577 5573 5569 5564 5560 5553 5553 5550 5545 5541 5536 5531 5525 5520
5613 5613 5612 5610 5609 5608 5606 5604 5602 5601 5600 5600 5598 5597 5595 5593 5592 5591 5590 5589 5587 5586 5583 5581 5580 5579 5576 5573 5573 5572 5569 5566 5562 5557 5553 5550 5547 5542 5538 5534 5529 5524 5519 5515
5605 5604 5603 5601 5600 5599 5598 5597 5596 5594 5593 5593 5591 5590 5588 5587 5586 5585 5584 5581 5577 5577 5575 5572 5574 5572 5570 5566 5565 5565 5562 5559 5555 5551 5547 5543 5540 5536 5531 5527 5522 5518 5513 5508
5598 5597 5596 5595 5594 5592 5591 5591 5590 5588 5587 5586 5585 5584 5582 5580 5580 5579 5577 5575 5571 5568 5570 5570 5568 5564 5562 5559 5561 5559 5555 5552 5548 5544 5540 5537 5533 5529 5524 5519 5515 5510 5506 5501
5592 5591 5590 5589 5588 5587 5586 5586 5585 5583 5582 5581 5580 5579 5578 5577 5576 5574 5571 5568 5567 5563 5566 5564 5557 5553 5552 5554 5553 5551 5547 5544 5540 5537 5533 5529 5525 5521 5517 5512 5508 5503 5499 5495
5586 5585 5585 5584 5583 5582 5581 5580 5579 5578 5577 5575 5574 5573 5573 5572 5571 5571 5567 5559 5558 5557 5558 5550 5546 5545 5544 5549 5546 5543 5540 5536 5533 5529 5525 5522 5519 5515 5510 5506 5502 5498 5493 5489
5582 5581 5580 5579 5578 5577 5576 5575 5573 5572 5572 5571 5570 5568 5569 5569 5567 5565 5561 5556 5551 5550 5549 5541 5538 5537 5540 5542 5539 5536 5532 5529 5527 5523 5519 5515 5512 5508 5504 5500 5496 5492 5488 5484
5578 5578 5577 5576 5576 5574 5574 5573 5572 5570 5569 5568 5566 5565 5564 5563 5560 5558 5554 5551 5548 5544 5544 5539 5535 5532 5536 5535 5531 5528 5525 5521 5517 5514 5512 5509 5505 5502 5498 5494 5489 5487 5483 5480
5574 5573 5572 5572 5571 5572 5571 5571 5569 5568 5568 5566 5564 5561 5560 5558 5555 5553 5550 5547 5544 5541 5539 5536 5534 5532 5531 5528 5525 5522 5519 5516 5512 5509 5506 5502 5498 5495 5492 5487 5484 5481 5478 5475